Regional Weather Roundup
Issued by NWS

Home | Current Version | Previous Version | Text Only | Print | Product List | Glossary Off
Versions: 1 2 3 4 5 6 7 8 9 10 11 12 13 14 15 16 17 18 19 20 21 22 23 24 25 26 27 28 29 30 31 32 33 34 35 36 37 38 39 40 41 42 43 44 45 46 47 48 49 50

000
ASUS43 KLSX 210907
RWRMO

WEATHER SUMMARY FOR MISSOURI
NATIONAL WEATHER SERVICE SPRINGFIELD MO
300 AM CST SUN JAN 21 2018

NOTE: "FAIR" INDICATES FEW OR NO CLOUDS BELOW 12,000 FEET WITH NO
       SIGNIFICANT WEATHER AND/OR OBSTRUCTIONS TO VISIBILITY.
       CURRENT SKY AND/OR WEATHER CONDITIONS ARE NOT AVAILABLE FOR
       CHILLICOTHE AND FARMINGTON.

MOZ001>031-035>038-043-044-053-054-211000-
...NORTHERN AND WESTERN MISSOURI...

CITY           SKY/WX    TMP DP  RH WIND       PRES   REMARKS
KANSAS CTY INT CLOUDY    47  46  97 SE7       29.81S
KANSAS C DTWN  CLOUDY    44  40  85 E6        29.82R
LEE`S SUMMIT   CLOUDY    47  46  97 S7        29.83S
ST JOSEPH      CLOUDY    41  41 100 SE6       29.82S
CHILLICOTHE      N/A     47  42  83 S3        29.87S
KIRKSVILLE     CLOUDY    42  41  96 S6        29.88S

$$
MOZ066>068-077>081-088>096-101>105-211000-
...SOUTHWEST MISSOURI...

CITY           SKY/WX    TMP DP  RH WIND       PRES   REMARKS
SPRINGFIELD    CLEAR     50  48  93 S12       29.88S
JOPLIN         MOCLDY    53  52  96 S10       29.85S

$$
MOZ032>034-039>042-045>050-055>058-069>072-211000-
...CENTRAL MISSOURI...

CITY           SKY/WX    TMP DP  RH WIND       PRES   REMARKS
COLUMBIA       CLEAR     47  45  93 SE5       29.91R
JEFFERSON CITY CLEAR     41  39  93 E6        29.91F
ROLLA          CLEAR     47  46  97 SE8       29.93S
SEDALIA        CLOUDY    50  48  93 S12       29.88S
WHITEMAN AFB   CLOUDY    49  46  89 S9        29.82S
WARRENSBURG    CLOUDY    46  45  93 SE7       29.85S
OSAGE BEACH    CLEAR     46  46 100 SE5       29.91S FOG

$$
MOZ051-052-059>065-211000-
...EAST CENTRAL MISSOURI...

CITY           SKY/WX    TMP DP  RH WIND       PRES   REMARKS
ST LOUIS INTL  MOCLDY    44  43  96 S7        29.97S FOG
SPIRIT OF STL  CLOUDY    37  37 100 CALM      29.96S
ST CHARLES     CLOUDY    36  36 100 E7        29.96S FOG

$$
MOZ072>076-082>087-097>100-106>115-211000-
...SOUTH CENTRAL AND SOUTHEAST MISSOURI...

CITY           SKY/WX    TMP DP  RH WIND       PRES   REMARKS
CAPE GIRARDEAU CLOUDY    48  45  89 S12       30.04R
FARMINGTON     CLOUDY    52  50  93 S8        29.99S
POPLAR BLUFF   CLOUDY    50  49  96 S6        30.02R FOG
WEST PLAINS    CLOUDY    51  50  96 SE6       29.96S

$$



USA.gov is the U.S. government's official web portal to all federal, state and local government web resources and services.